Newton, KS

8:10 AM CST on December 11, 2019 (GMT -0600)
Newton City County

Weather History for KEWK - October, 2019

Change the Weather History Date:

Monday, October 28, 2019

  Actual Average Record
Temperature  
Mean Temperature 34 °F -  
Max Temperature 39 °F 59 °F 80 °F (2016)
Min Temperature 25 °F 41 °F 21 °F (2017)
Degree Days  
Heating Degree Days 32    
Moisture  
Dew Point 25 °F    
Average Humidity 69    
Maximum Humidity 88    
Minimum Humidity 56    
Precipitation  
Precipitation 0.00 in - - ()
Sea Level Pressure  
Sea Level Pressure 30.14 in    
Wind  
Wind Speed 17 mph (North)    
Max Wind Speed 23 mph    
Max Gust Speed 28 mph    
Visibility 10 miles    
Events      
Averages and records for this station are not official NWS values.
T = Trace of Precipitation, MM = Missing Value Source: NWS Daily Summary

Daily Weather History Graph

Daily Weather History Graph

Search for Another Location

Airport or City:

Astronomy

Oct. 28, 2019 Rise Set
Actual Time 7:50 AM CDT 6:34 PM CDT
Civil Twilight 7:23 AM CDT 7:01 PM CDT
Nautical Twilight 6:52 AM CDT 7:32 PM CDT
Astronomical Twilight 6:21 AM CDT 8:03 PM CDT
Moon 8:13 AM CDT (10/28) 7:20 PM CDT (10/28)
Length of Visible Light 11h 38m
Length of Day
10h 44m
New Moon, 0% of the Moon is Illuminated
Oct 28
New Moon
Nov 4
First Quarter
Nov 12
Full
Nov 19
Last Quarter
Nov 26
New

Hourly Weather History & Observations

Time (CDT) Temp. Windchill Dew Point Humidity Pressure Visibility Wind Dir Wind Speed Gust Speed Precip Events Conditions
12:56 AM 39.0 °F 28.5 °F 28.9 °F 67% 30.14 in 10.0 mi North 23.0 mph 27.6 mph N/A   Overcast
1:26 AM 39.2 °F 30.2 °F 28.4 °F 65% 30.13 in 10.0 mi North 17.3 mph 24.2 mph N/A   Overcast
1:56 AM 37.0 °F 26.2 °F 28.9 °F 73% 30.14 in 10.0 mi North 21.9 mph 26.5 mph N/A   Overcast
2:11 AM 37.4 °F 27.5 °F 28.4 °F 70% 30.13 in 10.0 mi North 18.4 mph - N/A   Overcast
2:31 AM 35.6 °F 24.8 °F 28.4 °F 75% 30.13 in 10.0 mi North 19.6 mph - N/A   Overcast
2:56 AM 36.0 °F 26.0 °F 28.0 °F 73% 30.15 in 10.0 mi North 17.3 mph 24.2 mph N/A   Overcast
3:56 AM 34.0 °F 24.2 °F 24.1 °F 67% 30.15 in 10.0 mi North 15.0 mph 21.9 mph N/A   Overcast
4:56 AM 34.0 °F 23.4 °F 21.9 °F 61% 30.16 in 10.0 mi North 17.3 mph - N/A   Overcast
5:56 AM 34.0 °F 24.6 °F 19.9 °F 56% 30.17 in 10.0 mi North 13.8 mph - N/A   Overcast
6:56 AM 33.1 °F 22.6 °F 19.9 °F 59% 30.17 in 10.0 mi North 16.1 mph - N/A   Overcast
7:56 AM 33.1 °F 22.6 °F 19.0 °F 56% 30.17 in 10.0 mi North 16.1 mph - N/A   Overcast
8:56 AM 33.1 °F 22.6 °F 19.0 °F 56% 30.17 in 10.0 mi North 16.1 mph - N/A   Overcast
9:56 AM 33.1 °F 23.9 °F 19.9 °F 59% 30.17 in 10.0 mi NNE 12.7 mph - N/A   Overcast
10:56 AM 34.0 °F 24.6 °F 21.9 °F 61% 30.16 in 10.0 mi North 13.8 mph - N/A   Overcast
11:56 AM 35.1 °F 26.4 °F 24.1 °F 64% 30.14 in 10.0 mi North 12.7 mph - N/A   Overcast
12:56 PM 35.1 °F 26.4 °F 25.0 °F 67% 30.12 in 10.0 mi NNE 12.7 mph - N/A   Overcast
1:56 PM 36.0 °F 28.5 °F 26.1 °F 67% 30.09 in 10.0 mi North 10.4 mph - N/A   Overcast
2:56 PM 35.1 °F 26.4 °F 28.0 °F 76% 30.08 in 10.0 mi North 12.7 mph - N/A   Overcast
3:56 PM 35.1 °F 27.4 °F 27.0 °F 72% 30.09 in 10.0 mi NNE 10.4 mph - N/A   Overcast
4:56 PM 34.0 °F 24.6 °F 28.0 °F 79% 30.10 in 10.0 mi North 13.8 mph - N/A   Overcast
5:56 PM 33.1 °F 24.4 °F 28.9 °F 85% 30.10 in 10.0 mi North 11.5 mph - 0.00 in   Overcast
6:08 PM 33.8 °F 24.3 °F 28.4 °F 81% 30.07 in 10.0 mi North 13.8 mph - N/A   Overcast
6:56 PM 34.0 °F 24.2 °F 21.9 °F 61% 30.13 in 10.0 mi North 15.0 mph 20.7 mph N/A   Overcast
7:56 PM 32.0 °F 20.1 °F 21.9 °F 66% 30.17 in 10.0 mi North 19.6 mph 24.2 mph N/A   Overcast
8:56 PM 30.9 °F 21.2 °F 23.0 °F 72% 30.17 in 10.0 mi North 12.7 mph - N/A   Overcast
9:56 PM 30.0 °F 18.7 °F 23.0 °F 75% 30.21 in 10.0 mi NNW 16.1 mph - N/A   Overcast
10:56 PM 28.0 °F 19.3 °F 23.0 °F 81% 30.21 in 10.0 mi North 9.2 mph - N/A   Clear
11:56 PM 25.0 °F 17.1 °F 21.9 °F 88% 30.22 in 10.0 mi NNW 6.9 mph - N/A   Clear